Flag for Canada Weather past 2 weeks in Winnipeg, Manitoba, Canada

Now
52 °F

Cool.


Feels Like: 52 °F
Forecast: 40 / 67 °F
Wind: 3 mph from Northeast

Location: Winnipeg The Forks

Current Time: May 3, 2015 at 10:13:33 PM

Latest Report: May 3, 2015 at 9:00 PM


Visibility: N/A

Pressure: 30.00 "Hg

Humidity: 61%

Dew point: 39 °F

Location of WinnipegLocation

Historic Weather in Winnipeg — Graph

°F

Winnipeg temperature yesterday

Maximum temperature yesterday: 82 °F (at 4:00 PM)
Minimum temperature yesterday: 53 °F (at 6:00 AM)
Average temperature yesterday: 67 °F

Past Weeks' High & Low Weather Summary

 TemperatureHumidityPressure
High82 °F (May 2, 4:00 PM)94% (Apr 28, 7:00 AM)30.32 "Hg (Apr 28, 7:00 AM)
Low23 °F (Apr 23, 7:00 AM)13% (May 2, 4:00 PM)29.48 "Hg (May 2, 4:00 PM)
Average49 °F52%29.92 "Hg
* Reported Apr 18 8:00 PM — May 3 8:00 PM, Winnipeg, Weather by CustomWeather, © 2015

Note: Actual official high and low records may vary slightly from our data, if they occured in-between our weather recording intervals... More about our weather records

Advertising

Winnipeg weather history for previous 24 hours

 ConditionsComfort  
Time TempWeatherWind HumidityBarometerVisibility
8:00 PM
Sun, May 3
54 °FCool.8 mph60%29.97 "HgN/A
7:00 PM61 °FRefreshingly cool.8 mph33%29.94 "HgN/A
6:00 PM61 °FRefreshingly cool.8 mph35%29.93 "HgN/A
5:00 PM61 °FRefreshingly cool.5 mph39%29.92 "HgN/A
4:00 PM59 °FRefreshingly cool.8 mph41%29.91 "HgN/A
3:00 PM57 °FRefreshingly cool.9 mph45%29.91 "HgN/A
2:00 PM58 °FRefreshingly cool.9 mph44%29.88 "HgN/A
1:00 PM59 °FRefreshingly cool.7 mph38%29.86 "HgN/A
12:00 PM56 °FRefreshingly cool.8 mph44%29.85 "HgN/A
11:00 AM57 °FRefreshingly cool.7 mph45%29.83 "HgN/A
10:00 AM56 °FRefreshingly cool.6 mph54%29.80 "HgN/A
9:00 AM55 °FCool.3 mph56%29.78 "HgN/A
8:00 AM51 °FCool.2 mph65%29.76 "HgN/A
7:00 AM47 °FCool.3 mph72%29.76 "HgN/A
6:00 AM44 °FQuite cool.2 mph79%29.74 "HgN/A
5:00 AM47 °FCool.2 mph72%29.72 "HgN/A
4:00 AM49 °FCool.2 mph68%29.69 "HgN/A
3:00 AM48 °FCool.3 mph73%29.67 "HgN/A
2:00 AM50 °FCool.3 mph69%29.65 "HgN/A
1:00 AM51 °FCool.5 mph64%29.66 "HgN/A
12:00 AM53 °FCool.6 mph60%29.65 "HgN/A
11:00 PM
Sat, May 2
55 °FRefreshingly cool.7 mph56%29.64 "HgN/A
10:00 PM65 °FMild.8 mph36%29.61 "HgN/A
Weather by CustomWeather, © 2015

See weather overviewHow to use our weather pages